Back to catalog

METEOR 2-8 DEB

AlivePO
NORAD 36858·DEBRIS·🇷🇺 Russia

Launched Mar 25, 1982 from Plesetsk Cosmodrome

Loading…

Next Passes (next 24 hours)

TLE

FreshSource: Space-Track

Epoch: Sep 13, 2026, 10:38 UTC

1 36858U 82025AV  26256.44355976  .00003781  00000-0  15781-2 0  9994
2 36858  82.5165 146.5416 0043734 317.1210  42.6565 14.25496113 55736

Track METEOR 2-8 DEB in real time with AllMySat

Download on the App Store